Regional Weather Roundup
Issued by NWS

Home | Current Version | Previous Version | Text Only | Print | Product List | Glossary Off
Versions: 1 2 3 4 5 6 7 8 9 10 11 12 13 14 15 16 17 18 19 20 21 22 23 24 25 26 27 28 29 30 31 32 33 34 35 36 37 38 39 40 41 42 43 44 45 46 47 48 49 50

317
ASUS43 KOAX 010302
RWRNE

WEATHER ROUNDUP FOR NEBRASKA
NATIONAL WEATHER SERVICE OMAHA NE
1000 PM CDT SUN APR 30 2017

NOTES: SATELLITE DATA IS BEING USED TO AUGMENT CLOUD COVER ABOVE
       12000 FEET.
       "FAIR" INDICATES FEW OR NO CLOUDS BELOW 12,000 FEET WITH NO
       SIGNIFICANT WEATHER AND/OR OBSTRUCTIONS TO VISIBILITY.

  * THESE STATIONS DO NOT REPORT WEATHER SUCH AS RAIN...SNOW OR FOG.

NEZ001>004-019>022-054>056-010400-
NEBRASKA PANHANDLE

CITY           SKY/WX    TMP DP  RH WIND       PRES   REMARKS
SCOTTSBLUFF    CLOUDY    44  30  57 NE12      29.83S
ALLIANCE       CLOUDY    41  25  53 N8        29.82R
CHADRON        CLOUDY    44  27  51 CALM      29.85R
KIMBALL        CLEAR     42  26  53 NW8       29.84R
SIDNEY         CLOUDY    45  24  43 NE9       29.82R
$$

NEZ057>060-069>072-079>082-010400-
SOUTHWEST NEBRASKA

CITY           SKY/WX    TMP DP  RH WIND       PRES   REMARKS
NORTH PLATTE   CLOUDY    45  24  43 N12G22    29.71F
IMPERIAL       CLOUDY    45  22  40 N18       29.76S
LEXINGTON      LGT RAIN  35  32  90 N21       29.71R WCI  23
MCCOOK         CLOUDY    37  31  78 N18       29.72R WCI  27
$$

NEZ005>010-023>029-035>040-094-010400-
NORTH CENTRAL NEBRASKA

CITY           SKY/WX    TMP DP  RH WIND       PRES   REMARKS
VALENTINE      CLOUDY    47  17  30 N14       29.77F
AINSWORTH      CLOUDY    40  28  63 N6        29.71F
BROKEN BOW     LGT SNOW  34  33  96 N29G38    29.67S FOG     WCI  20
O`NEILL        LGT SNOW  33  32  94 N14       29.71S WCI  24
ORD            LGT SNOW  33  31  92 N12       29.68R FOG     WCI  24
THEDFORD       CLOUDY    45  21  37 N14G20    29.73F
$$

NEZ041-046>049-061>064-073>077-083>087-010400-
SOUTH CENTRAL NEBRASKA

CITY           SKY/WX    TMP DP  RH WIND       PRES   REMARKS
GRAND ISLAND   LGT SNOW  33  33 100 N18       29.60F FOG     WCI  22
AURORA         LGT RAIN  34  34  99 N17G24    29.58S WCI  23
HASTINGS       MIX PCPN  34  32  92 N24       29.60S WCI  21
HEBRON         CLOUDY    37  37  97 N16G23    29.53R FOG     WCI  28
HOLDREGE       LGT RAIN  33  32  95 N18G25    29.66R WCI  22
KEARNEY *      CLOUDY    34  30  86 N23G29    29.65R WCI  22
YORK           LGT RAIN  36  36 100 N14G21    29.56S WCI  27
$$

NEZ011>018-030>034-042>045-010400-
NORTHEAST NEBRASKA

CITY           SKY/WX    TMP DP  RH WIND       PRES   REMARKS
NORFOLK        FLURRIES  33  31  92 N13       29.61F WCI  24
ALBION         LGT SNOW  35  32  90 N12       29.63F WCI  26
BLAIR          LGT RAIN  41  40  95 N13G18    29.51S
FREMONT        DRIZZLE   40  40  99 N7        29.54S
TEKAMAH        CLOUDY    42  38  85 N16       29.54F
$$

NEZ050>053-065>068-078-088>093-010400-
SOUTHEAST NEBRASKA

CITY           SKY/WX    TMP DP  RH WIND       PRES   REMARKS
LINCOLN        CLOUDY    41  40  96 N16       29.51F
OMAHA EPPLEY   CLOUDY    43  38  82 N13G21    29.50F
BEATRICE       CLOUDY    42  42  97 N16G23    29.47R FOG
FALLS CITY     LGT RAIN  46  42  86 S3        29.46S
NEBRASKA CITY  DRIZZLE   43  43 100 NE12      29.45F
$$

NEZ044-045-051>053-067-010400-
OMAHA AREA

CITY           SKY/WX    TMP DP  RH WIND       PRES   REMARKS
OMAHA EPPLEY   CLOUDY    43  38  82 N13G21    29.50F
BLAIR          LGT RAIN  41  40  95 N13G18    29.51S
FREMONT        DRIZZLE   40  40  99 N7        29.54S
MILLARD        CLOUDY    44  42  91 N8        29.51S
OFFUTT AFB     CLOUDY    43  40  89 N8G21     29.49S
WAHOO          RAIN      40  39  95 N15       29.53S WCI  32
$$




USA.gov is the U.S. government's official web portal to all federal, state and local government web resources and services.